Location: Etiwanda
(34.1261°N, 117.5237°W)
Time: 09:22:01
(UTC+00:00)

COSMOS 2428 - Pass Details

Date: 03 August 2024
Orbit: 842 x 857 km, 70.9° (Epoch: 10 September)

Event Time Altitude Azimuth Distance (km) Brightness Sun altitude
Exits shadow 12:05:31 14° 254° (WSW) 2,164 4.2 -11.6°
Maximum altitude 12:09:01 25° 300° (WNW) 1,653 4.0 -10.9°
Drops below altitude 10° 12:13:37 10° 355° (N) 2,476 5.5 -10.1°
Sets 12:16:32 0° 8° (N) 3,417 6.4 -9.6°
